• In Russia
  • List of Countries
  • For 7 days
  • Water Temperature
  • Satellite Maps
  • Weather Map
  • Weather Widgets
  • user-avatar
    Login

    Hourly Weather Eisenstadt

    Today, 25 July, Tuesday

    Time Temperature Precipitation Wind Pressure Humidity
    00:00 +14°C° 0.1 mm 4 mps 715 mmHg 83%
    01:00 +14°C° 0.1 mm 4 mps 716 mmHg 82%
    02:00 +14°C° 0 mm 4 mps 716 mmHg 80%
    03:00 +14°C° 0 mm 4 mps 716 mmHg 79%
    04:00 +14°C° 0 mm 4 mps 715 mmHg 77%
    05:00 +14°C° 0 mm 4 mps 715 mmHg 75%
    06:00 +15°C° 0 mm 5 mps 716 mmHg 73%
    07:00 +15°C° 0 mm 5 mps 716 mmHg 70%
    08:00 +17°C° 0 mm 5 mps 716 mmHg 63%
    09:00 +19°C° 0 mm 5 mps 716 mmHg 55%
    10:00 +21°C° 0 mm 5 mps 716 mmHg 48%
    11:00 +21°C° 0 mm 5 mps 716 mmHg 45%
    12:00 +22°C° 0 mm 5 mps 716 mmHg 42%
    13:00 +23°C° 0 mm 5 mps 716 mmHg 40%
    14:00 +22°C° 0 mm 5 mps 716 mmHg 40%
    15:00 +22°C° 0 mm 5 mps 716 mmHg 41%
    16:00 +22°C° 0 mm 5 mps 715 mmHg 42%
    17:00 +21°C° 0.1 mm 4 mps 715 mmHg 47%
    18:00 +20°C° 0.1 mm 4 mps 715 mmHg 53%
    19:00 +18°C° 0.1 mm 3 mps 715 mmHg 59%
    20:00 +17°C° 0.1 mm 3 mps 716 mmHg 64%
    21:00 +16°C° 0.1 mm 3 mps 716 mmHg 68%
    22:00 +14°C° 0.1 mm 3 mps 716 mmHg 72%
    23:00 +14°C° 0 mm 2 mps 716 mmHg 75%

    Tomorrow, 26 July, Wednesday

    Time Temperature Precipitation Wind Pressure Humidity
    00:00 +14°C° 0 mm 2 mps 716 mmHg 77%
    01:00 +13°C° 0 mm 2 mps 716 mmHg 79%
    02:00 +13°C° 0 mm 2 mps 716 mmHg 81%
    03:00 +12°C° 0 mm 1 mps 716 mmHg 82%
    04:00 +12°C° 0 mm 1 mps 716 mmHg 83%
    05:00 +13°C° 0 mm 1 mps 716 mmHg 78%
    06:00 +15°C° 0 mm 1 mps 716 mmHg 74%
    07:00 +16°C° 0 mm 2 mps 716 mmHg 69%
    08:00 +18°C° 0 mm 2 mps 716 mmHg 63%
    09:00 +19°C° 0 mm 2 mps 716 mmHg 57%
    10:00 +21°C° 0 mm 3 mps 716 mmHg 52%
    11:00 +20°C° 0.4 mm 3 mps 716 mmHg 54%
    12:00 +20°C° 0.4 mm 3 mps 716 mmHg 57%
    13:00 +20°C° 0.4 mm 3 mps 716 mmHg 60%
    14:00 +19°C° 0.6 mm 3 mps 716 mmHg 66%
    15:00 +18°C° 0.6 mm 3 mps 716 mmHg 71%
    16:00 +17°C° 0.6 mm 4 mps 716 mmHg 77%
    17:00 +17°C° 0.1 mm 3 mps 717 mmHg 77%
    18:00 +16°C° 0.1 mm 3 mps 717 mmHg 76%
    19:00 +16°C° 0.1 mm 3 mps 717 mmHg 76%
    20:00 +14°C° 0.2 mm 3 mps 718 mmHg 78%
    21:00 +14°C° 0.2 mm 2 mps 718 mmHg 80%
    22:00 +14°C° 0.2 mm 2 mps 718 mmHg 83%
    23:00 +14°C° 0.3 mm 2 mps 718 mmHg 84%

    Day after tomorrow, 27 July, Thursday

    Time Temperature Precipitation Wind Pressure Humidity
    00:00 +14°C° 0.3 mm 2 mps 718 mmHg 86%
    01:00 +14°C° 0.3 mm 2 mps 718 mmHg 87%
    02:00 +14°C° 0.3 mm 2 mps 718 mmHg 88%
    03:00 +14°C° 0.3 mm 2 mps 718 mmHg 89%
    04:00 +14°C° 0.3 mm 2 mps 718 mmHg 90%
    05:00 +14°C° 0.2 mm 2 mps 718 mmHg 89%
    06:00 +14°C° 0.2 mm 2 mps 719 mmHg 87%
    07:00 +15°C° 0.2 mm 2 mps 719 mmHg 86%
    08:00 +17°C° 0 mm 3 mps 719 mmHg 77%
    09:00 +18°C° 0 mm 3 mps 719 mmHg 67%
    10:00 +20°C° 0 mm 3 mps 720 mmHg 58%
    11:00 +21°C° 0 mm 3 mps 719 mmHg 52%
    12:00 +24°C° 0 mm 3 mps 719 mmHg 47%
    13:00 +25°C° 0 mm 4 mps 719 mmHg 41%
    14:00 +25°C° 0.1 mm 3 mps 719 mmHg 45%
    15:00 +24°C° 0.1 mm 3 mps 719 mmHg 50%
    16:00 +22°C° 0.1 mm 3 mps 719 mmHg 54%
    17:00 +21°C° 0.3 mm 3 mps 719 mmHg 60%
    18:00 +20°C° 0.3 mm 2 mps 719 mmHg 66%
    19:00 +18°C° 0.3 mm 2 mps 719 mmHg 72%
    20:00 +18°C° 0 mm 2 mps 719 mmHg 73%
    21:00 +18°C° 0 mm 1 mps 719 mmHg 74%
    22:00 +18°C° 0 mm 1 mps 719 mmHg 76%
    23:00 +18°C° 0 mm 1 mps 720 mmHg 76%

    28 July, Friday

    Time Temperature Precipitation Wind Pressure Humidity
    00:00 +16°C° 0 mm 1 mps 720 mmHg 76%
    01:00 +16°C° 0 mm 1 mps 720 mmHg 77%
    02:00 +16°C° 0.1 mm 1 mps 720 mmHg 78%
    03:00 +16°C° 0.1 mm 1 mps 720 mmHg 80%
    04:00 +15°C° 0.1 mm 1 mps 720 mmHg 81%
    05:00 +16°C° 0.1 mm 1 mps 720 mmHg 79%
    06:00 +18°C° 0.1 mm 1 mps 720 mmHg 77%
    07:00 +19°C° 0.1 mm 1 mps 720 mmHg 75%
    08:00 +20°C° 0.1 mm 1 mps 721 mmHg 71%
    09:00 +20°C° 0.1 mm 2 mps 721 mmHg 68%
    10:00 +21°C° 0.1 mm 2 mps 721 mmHg 64%
    11:00 +24°C° 0 mm 2 mps 721 mmHg 57%
    12:00 +26°C° 0 mm 3 mps 721 mmHg 49%
    13:00 +28°C° 0 mm 3 mps 721 mmHg 41%
    14:00 +28°C° 0.1 mm 3 mps 721 mmHg 42%
    15:00 +28°C° 0.1 mm 3 mps 721 mmHg 43%
    16:00 +28°C° 0.1 mm 4 mps 721 mmHg 43%
    17:00 +26°C° 0.1 mm 4 mps 721 mmHg 50%
    18:00 +24°C° 0.1 mm 3 mps 722 mmHg 56%
    19:00 +22°C° 0.1 mm 3 mps 722 mmHg 62%
    20:00 +21°C° 0 mm 3 mps 723 mmHg 65%
    21:00 +20°C° 0 mm 3 mps 723 mmHg 67%
    22:00 +19°C° 0 mm 3 mps 724 mmHg 70%
    23:00 +19°C° 0 mm 3 mps 724 mmHg 71%

    29 July, Saturday

    Time Temperature Precipitation Wind Pressure Humidity
    00:00 +18°C° 0 mm 3 mps 724 mmHg 71%
    01:00 +18°C° 0 mm 2 mps 724 mmHg 72%
    02:00 +17°C° 0.1 mm 2 mps 725 mmHg 75%
    03:00 +17°C° 0.1 mm 2 mps 725 mmHg 77%
    04:00 +16°C° 0.1 mm 2 mps 725 mmHg 79%
    05:00 +18°C° 0 mm 1 mps 725 mmHg 77%
    06:00 +19°C° 0 mm 1 mps 726 mmHg 75%
    07:00 +19°C° 0 mm 1 mps 726 mmHg 73%
    08:00 +21°C° 0 mm 1 mps 726 mmHg 66%
    09:00 +23°C° 0 mm 1 mps 726 mmHg 60%
    10:00 +25°C° 0 mm 2 mps 726 mmHg 53%
    11:00 +26°C° 0 mm 2 mps 726 mmHg 51%
    12:00 +27°C° 0 mm 3 mps 725 mmHg 48%
    13:00 +28°C° 0 mm 3 mps 725 mmHg 45%
    14:00 +29°C° 0 mm 3 mps 725 mmHg 45%
    15:00 +29°C° 0 mm 3 mps 724 mmHg 44%
    16:00 +30°C° 0 mm 3 mps 724 mmHg 44%
    17:00 +28°C° 0 mm 3 mps 724 mmHg 50%
    18:00 +27°C° 0 mm 2 mps 723 mmHg 56%
    19:00 +25°C° 0 mm 2 mps 723 mmHg 62%
    20:00 +24°C° 0 mm 2 mps 723 mmHg 65%
    21:00 +23°C° 0 mm 2 mps 723 mmHg 68%
    22:00 +21°C° 0 mm 2 mps 723 mmHg 71%
    23:00 +21°C° 0.1 mm 2 mps 723 mmHg 73%

    30 July, Sunday

    Time Temperature Precipitation Wind Pressure Humidity
    00:00 +21°C° 0.1 mm 1 mps 723 mmHg 75%
    01:00 +21°C° 0.1 mm 1 mps 723 mmHg 77%
    02:00 +20°C° 0.3 mm 1 mps 723 mmHg 79%
    03:00 +20°C° 0.3 mm 1 mps 723 mmHg 81%
    04:00 +20°C° 0.3 mm 1 mps 723 mmHg 84%
    05:00 +21°C° 0.3 mm 1 mps 723 mmHg 81%
    06:00 +22°C° 0.3 mm 1 mps 723 mmHg 78%
    07:00 +23°C° 0.3 mm 1 mps 724 mmHg 75%
    08:00 +25°C° 0.8 mm 1 mps 724 mmHg 70%
    09:00 +26°C° 0.8 mm 1 mps 724 mmHg 64%
    10:00 +28°C° 0.8 mm 1 mps 724 mmHg 59%
    11:00 +28°C° 0.9 mm 2 mps 724 mmHg 57%
    12:00 +29°C° 0.9 mm 2 mps 724 mmHg 56%
    13:00 +29°C° 0.9 mm 2 mps 724 mmHg 55%
    14:00 +29°C° 0.6 mm 3 mps 724 mmHg 56%
    15:00 +28°C° 0.6 mm 3 mps 723 mmHg 58%
    16:00 +28°C° 0.6 mm 3 mps 723 mmHg 59%
    17:00 +26°C° 0.5 mm 3 mps 723 mmHg 66%
    18:00 +24°C° 0.5 mm 3 mps 723 mmHg 73%
    19:00 +23°C° 0.5 mm 2 mps 723 mmHg 80%
    20:00 +21°C° 0.5 mm 2 mps 723 mmHg 81%
    21:00 +20°C° 0.5 mm 2 mps 723 mmHg 81%
    22:00 +21°C° 0.5 mm 1 mps 723 mmHg 82%
    23:00 +20°C° 0.1 mm 1 mps 723 mmHg 82%
    Show more